Location: Sevilla
(37.3933°N, 5.9839°W)
Time: 12:19:59
(UTC+02:00)

S-56A Canister/Altair - Pass Details

Date: 02 July 2024
Orbit: 638 x 2488 km, 38.9° (Epoch: 14 July)

Event Time Altitude Azimuth Distance (km) Brightness Sun altitude
Rises 00:26:18 0° 284° (WNW) 4,080 11.9 -23.1°
Reaches altitude 10° 00:28:42 10° 283° (WNW) 3,320 11.3 -23.4°
Maximum altitude 00:37:23 81° 199° (SSW) 1,754 9.1 -24.2°
Enters shadow 00:45:47 25° 115° (ESE) 3,503 10.4 -25.0°
